Wind_Speed
27 25 18 17 16 12 8 5 6 9 10 9 10 9 8 6 2 2 4 5 5 7 8 10 11 13 15 16 16 13 16 17
22 20 17 15 13 10 7 5 9 9 10 10 10 10 7 5 2 4 7 8 9 10 11 13 14 15 16 18 18 16 20 21
24 20 16 19 14 8 4 5 8 8 9 9 10 8 7 5 5 7 10 12 14 12 13 15 15 16 19 22 22 21 23 23
23 21 20 11 7 4 2 3 6 8 9 9 11 10 9 7 8 10 12 13 15 13 17 20 17 19 24 25 25 23 22 24
19 13 9 6 5 2 3 3 6 8 10 12 11 12 12 10 10 14 14 19 23 23 28 24 25 27 28 27 24 23 23 25
15 15 10 9 5 7 8 7 9 13 12 11 11 11 10 11 16 16 17 15 19 23 22 24 26 29 33 33 33 33 31 31
13 8 8 9 10 8 7 6 9 10 11 13 13 13 13 16 18 16 15 19 22 21 21 25 28 29 31 34 34 35 36 35
9 9 8 3 5 10 12 10 9 10 12 14 17 18 19 19 19 21 21 20 21 21 22 27 30 32 33 33 36 39 39 38
6 3 4 7 9 7 6 8 11 10 14 18 21 24 23 23 24 22 21 20 21 23 25 30 32 33 35 37 39 38 37 36
5 3 3 2 4 6 8 12 15 16 22 25 28 28 24 23 24 27 25 25 26 25 27 30 32 36 37 37 38 37 37 37
1 3 6 5 7 10 13 15 17 17 17 20 24 30 31 36 28 29 28 29 30 29 31 34 37 38 39 37 37 37 38 37
4 7 12 12 14 16 18 19 13 13 13 12 14 24 28 32 33 27 29 32 33 34 34 37 40 41 40 41 40 40 40 40
11 12 14 15 18 20 19 14 11 8 10 11 11 15 24 26 26 28 29 31 33 33 39 39 37 39 40 39 39 38 38 39
17 18 15 21 23 20 15 12 11 15 11 11 13 15 19 24 26 27 28 28 31 36 37 37 38 38 39 40 41 37 37 37
19 20 21 23 20 14 14 15 19 17 13 14 16 21 21 23 24 28 30 32 34 34 36 37 37 36 37 39 42 44 43 38
21 24 23 18 13 17 18 19 19 16 17 16 19 17 25 26 29 33 33 34 36 37 38 39 39 39 39 39 38 41 45 48
21 17 15 14 20 19 18 18 20 20 21 22 25 27 29 32 35 33 34 35 36 38 39 40 40 40 40 41 42 41 39 42
16 17 17 17 16 16 16 19 19 21 22 23 25 27 34 39 36 39 39 38 39 39 39 40 40 40 38 39 41 41 39 39
18 16 14 14 16 18 18 20 21 23 26 27 31 30 35 36 35 34 35 36 37 38 38 38 40 42 41 38 38 39 35 40
16 17 16 16 16 18 19 21 24 26 28 37 38 35 34 36 33 33 33 36 37 38 37 38 40 41 41 39 39 38 34 38
Wind_Direction
143 149 166 173 178 177 190 209 180 169 172 170 173 177 165 156 152 36 357 347 333 326 331 333 339 345 346 344 344 353 318 320
149 150 175 183 176 181 193 194 181 180 181 187 188 192 187 202 245 325 319 327 318 319 320 323 329 330 331 333 330 333 316 320
135 146 160 202 190 190 204 195 191 192 190 201 204 208 219 247 296 311 322 318 313 313 311 311 320 323 326 325 331 327 322 314
146 179 198 196 188 191 203 201 198 204 207 221 221 220 238 258 289 304 307 304 299 292 304 318 317 324 324 329 328 326 318 308
158 193 186 180 198 228 282 247 222 222 222 235 245 241 242 264 287 284 285 297 299 311 321 319 322 326 322 318 313 308 307 304
164 182 177 202 235 260 260 248 238 243 249 250 244 264 268 274 270 272 287 301 308 308 316 315 315 316 319 320 318 316 311 304
174 177 218 244 265 280 290 301 294 276 260 255 256 253 264 271 279 287 301 295 293 299 308 311 314 317 314 312 311 308 306 307
183 213 246 299 22 24 21 357 322 306 280 270 262 257 260 257 271 285 288 286 291 303 315 313 309 310 307 308 308 309 312 311
206 182 85 52 41 32 1 335 315 287 286 274 271 264 266 267 282 299 302 303 309 310 311 308 307 308 309 308 307 307 306 304
169 78 32 14 350 338 323 323 312 282 293 264 277 260 266 287 293 295 303 306 303 300 302 304 310 311 310 308 307 307 305 304
200 294 290 282 297 307 305 304 305 289 283 269 269 255 264 275 296 288 290 296 297 298 300 308 308 306 305 305 305 304 304 301
272 273 282 287 297 302 301 300 290 280 274 279 279 269 267 265 280 276 289 290 293 298 304 305 306 307 308 306 306 306 304 301
302 288 285 293 293 293 291 279 268 266 292 292 280 264 265 271 276 284 286 292 296 300 303 306 305 304 303 302 301 299 297 295
289 290 280 284 288 288 277 271 288 304 294 288 287 270 269 273 281 285 291 294 298 301 303 304 303 304 303 303 302 299 297 292
277 280 280 282 279 271 274 296 302 304 287 294 295 275 279 283 288 291 297 304 303 300 299 303 306 307 307 307 307 305 305 297
267 270 265 265 270 289 307 297 295 287 280 287 291 286 284 293 293 300 304 301 297 301 307 311 312 312 310 308 308 307 309 306
258 256 263 267 284 299 290 290 297 305 311 311 314 308 312 307 301 301 304 306 309 312 314 314 313 312 311 309 307 303 296 293
247 239 252 278 291 287 283 294 303 308 305 299 298 307 306 307 311 313 312 314 315 314 312 309 309 308 307 305 303 301 294 288
246 258 276 284 285 289 293 292 293 292 296 301 294 295 311 299 309 304 305 307 307 306 306 307 307 308 310 309 301 296 290 290
255 269 277 279 280 289 293 290 286 285 284 303 295 286 303 306 302 300 303 305 306 306 307 308 307 307 308 306 299 296 287 290
Height
3150 3155 3162 3167 3171 3173 3176 3177 3177 3179 3181 3182 3184 3186 3186 3187 3188 3189 3189 3189 3190 3189 3187 3187 3185 3184 3184 3183 3182 3181 3173 3172
3151 3162 3169 3170 3171 3173 3175 3176 3177 3179 3180 3181 3183 3185 3186 3186 3187 3187 3188 3188 3188 3186 3186 3185 3183 3182 3182 3181 3180 3179 3171 3169
3150 3164 3168 3167 3170 3172 3174 3175 3176 3178 3180 3180 3183 3185 3185 3186 3186 3186 3185 3185 3184 3183 3182 3181 3180 3178 3178 3176 3176 3175 3169 3167
3157 3163 3166 3169 3170 3172 3173 3175 3176 3177 3178 3180 3182 3183 3184 3185 3185 3182 3181 3181 3180 3180 3179 3177 3176 3176 3175 3173 3171 3170 3168 3164
3159 3164 3166 3169 3171 3172 3173 3174 3175 3176 3177 3178 3180 3180 3181 3182 3180 3180 3179 3176 3175 3175 3174 3173 3170 3171 3170 3169 3168 3166 3166 3163
3161 3166 3168 3170 3170 3171 3171 3173 3174 3174 3175 3176 3177 3176 3177 3178 3178 3176 3176 3174 3173 3172 3171 3170 3168 3167 3164 3162 3160 3158 3156 3155
3162 3165 3167 3167 3169 3171 3172 3173 3174 3174 3175 3175 3175 3176 3174 3175 3173 3173 3173 3173 3171 3170 3169 3167 3165 3163 3161 3158 3156 3153 3151 3149
3162 3164 3165 3167 3168 3169 3171 3173 3173 3174 3175 3174 3174 3173 3173 3173 3172 3172 3171 3170 3169 3166 3165 3164 3161 3159 3157 3154 3150 3148 3145 3141
3161 3164 3165 3166 3167 3168 3170 3171 3171 3172 3173 3172 3171 3169 3169 3169 3169 3168 3165 3164 3163 3162 3160 3158 3156 3154 3151 3148 3144 3142 3139 3136
3162 3163 3165 3166 3166 3168 3170 3170 3170 3170 3169 3168 3166 3165 3165 3164 3163 3163 3161 3159 3159 3158 3157 3155 3151 3147 3145 3142 3139 3136 3133 3129
3162 3163 3163 3165 3166 3166 3166 3167 3167 3166 3165 3163 3161 3160 3159 3160 3160 3158 3156 3154 3153 3152 3151 3148 3144 3141 3138 3134 3131 3128 3124 3121
3159 3161 3161 3163 3163 3163 3163 3164 3163 3163 3161 3160 3157 3156 3154 3156 3156 3155 3152 3150 3148 3146 3144 3142 3137 3132 3128 3125 3122 3119 3116 3111
3155 3158 3157 3158 3159 3160 3160 3160 3159 3158 3157 3155 3155 3154 3152 3151 3151 3150 3149 3146 3142 3140 3136 3133 3130 3126 3121 3119 3115 3113 3109 3105
3152 3153 3155 3156 3155 3155 3155 3154 3154 3154 3153 3152 3151 3150 3149 3149 3146 3144 3143 3141 3137 3132 3128 3125 3122 3118 3112 3107 3103 3104 3100 3097
3149 3150 3151 3151 3152 3152 3151 3149 3149 3149 3148 3148 3147 3147 3146 3144 3143 3140 3136 3134 3130 3126 3121 3117 3113 3108 3103 3098 3091 3086 3082 3084
3146 3147 3148 3147 3148 3147 3145 3144 3144 3145 3146 3145 3144 3143 3141 3138 3135 3133 3130 3127 3123 3117 3111 3106 3102 3096 3091 3088 3084 3077 3069 3062
3143 3142 3143 3143 3144 3143 3141 3141 3140 3138 3137 3136 3134 3133 3129 3129 3127 3125 3121 3117 3112 3106 3100 3095 3091 3087 3081 3076 3072 3068 3065 3059
3139 3140 3142 3140 3139 3140 3138 3136 3135 3133 3131 3131 3130 3128 3125 3120 3116 3112 3108 3104 3099 3095 3090 3085 3081 3077 3074 3068 3062 3056 3053 3049
3135 3136 3137 3137 3136 3136 3136 3134 3132 3132 3131 3129 3127 3124 3120 3115 3111 3107 3103 3098 3093 3089 3084 3079 3072 3066 3062 3058 3053 3048 3044 3040
3130 3131 3133 3134 3134 3134 3133 3132 3130 3128 3125 3123 3119 3115 3112 3108 3104 3101 3097 3091 3086 3080 3075 3070 3063 3058 3052 3048 3043 3039 3036 3033